User: anonymous   Login
Location: NJAA Observatory
(40.6819°N, 74.8979°W)
Time: 01:25:37
(UTC-04:00)
Language:

Cosmos 1461 - Orbit

View from above orbital plane
View from above orbital plane
View from above satellite
View from above satellite

Ground track
Ground track

The orbit data is extracted from the following two-line orbital elements,

1 14064U 83044A   17083.82053168 +.00000437 +00000-0 +53772-4 0  9998
2 14064 065.0018 185.8176 0084817 076.1158 284.9375 14.93506632710756
Epoch (UTC): 24 March 2017 19:41:33
Eccentricity: 0.0084817
inclination: 65.0018°
perigee height: 528 km
apogee height: 646 km
right ascension of ascending node: 185.8176°
argument of perigee: 76.1158°
revolutions per day: 14.93506632
mean anomaly at epoch: 284.9375°
orbit number at epoch: 71075

The dashed part of the orbit path shows where the satellite is in the earth's shadow,  

DLR